Weather History for Kodiak, AK

Change the Weather History Date:

Monday, March 4, 2013

  Actual Average Record
Temperature  
Mean Temperature 39 °F 32 °F  
Max Temperature 40 °F 37 °F 47 °F (1996)
Min Temperature 37 °F 27 °F 2 °F (1971)
Degree Days  
Heating Degree Days 26 33  
Month to date heating degree days 124 132  
Since 1 July heating degree days 6045 6005  
Cooling Degree Days 0    
Month to date cooling degree days 0  
Year to date cooling degree days 0  
Moisture  
Dew Point 37 °F    
Average Humidity 0    
Maximum Humidity 0    
Minimum Humidity 0    
Precipitation  
Precipitation 0.36 in 0.18 in 0.83 in (1955)
Month to date precipitation 1.56 0.73  
Year to date precipitation 17.74 15.16  
Snow  
Snow 0.00 in 0.40 in 3.70 in (1975)
Month to date snowfall T 1.6  
Since 1 July snowfall 48.4 51.0  
Snow Depth T in    
Sea Level Pressure  
Sea Level Pressure 30.28 in    
Wind  
Wind Speed 15 mph (ESE)    
Max Wind Speed 21 mph    
Max Gust Speed 25 mph    
Visibility 7 miles    
Events Rain    
T = Trace of Precipitation, MM = Missing Value Source: NWS Daily Summary

Daily Weather History Graph

Daily Weather History Graph

Search for Another Location

Airport:

Trip Planner

Search our weather history database for the weather conditions in past years. The results will help you decide how hot, cold, wet, or windy it might be!

Date:

Astronomy

Mar. 04, 2013 Rise Set
Actual Time 7:54 AM AKST 6:49 PM AKST
Civil Twilight 7:15 AM AKST 7:28 PM AKST
Nautical Twilight 6:30 AM AKST 8:13 PM AKST
Astronomical Twilight 5:44 AM AKST 8:59 PM AKST
Moon 3:12 AM AKST (3/4) 10:42 AM AKST (3/4)
Length of Visible Light 12h 12m
Length of Day
10h 54m
Waning Gibbous, 50% of the Moon is Illuminated
Mar 4
Waning Gibbous
Mar 4
Last Quarter
Mar 11
New
Mar 19
First Quarter
Mar 27
Full

Hourly Weather History & Observations

Time (AKST) Temp. Windchill Dew Point Humidity Pressure Visibility Wind Dir Wind Speed Gust Speed Precip Events Conditions
12:53 AM 39.0 °F 32.8 °F 37.9 °F 96% 30.20 in 8.0 mi ESE 9.2 mph - 0.03 in Rain Light Rain
1:53 AM 39.0 °F 31.8 °F 37.9 °F 96% 30.22 in 4.0 mi East 11.5 mph - 0.02 in Rain Light Rain
2:02 AM 39.2 °F 30.8 °F 37.4 °F 93% 30.22 in 4.0 mi East 15.0 mph - 0.00 in Rain Light Rain
2:21 AM 39.2 °F 29.8 °F 37.4 °F 93% 30.22 in 6.0 mi East 18.4 mph - 0.01 in Rain Light Rain
3:43 AM 39.2 °F 30.5 °F 39.2 °F 100% 30.25 in 6.0 mi East 16.1 mph - 0.02 in Rain Light Rain
3:53 AM 39.0 °F 29.6 °F 39.0 °F 100% 30.26 in 5.0 mi East 18.4 mph - 0.03 in Rain Light Rain
4:00 AM 39.2 °F 29.6 °F 39.2 °F 100% 30.26 in 5.0 mi East 19.6 mph - 0.00 in Rain Light Rain
4:53 AM 39.0 °F 29.9 °F 39.0 °F 100% 30.27 in 5.0 mi ESE 17.3 mph - 0.06 in Rain Light Rain
5:53 AM 39.0 °F 29.6 °F 37.9 °F 96% 30.28 in 7.0 mi ESE 18.4 mph - 0.04 in Rain Light Rain
6:53 AM 39.0 °F 30.6 °F 37.9 °F 96% 30.29 in 6.0 mi ESE 15.0 mph - 0.03 in Rain Light Rain
7:53 AM 39.0 °F 31.0 °F 37.9 °F 96% 30.30 in 7.0 mi ESE 13.8 mph - 0.02 in Rain Light Rain
8:53 AM 39.0 °F 30.3 °F 37.9 °F 96% 30.31 in 5.0 mi ESE 16.1 mph - 0.00 in Rain Light Rain
9:53 AM 39.0 °F 30.3 °F 37.9 °F 96% 30.32 in 6.0 mi East 16.1 mph - 0.00 in Rain Light Rain
10:53 AM 39.0 °F 30.6 °F 37.9 °F 96% 30.33 in 3.0 mi East 15.0 mph - 0.02 in Rain Light Rain
11:53 AM 39.0 °F 30.6 °F 37.9 °F 96% 30.34 in 4.0 mi ESE 15.0 mph - 0.03 in Rain Light Rain
12:00 PM 39.2 °F 30.8 °F 37.4 °F 93% 30.34 in 7.0 mi ESE 15.0 mph - 0.00 in Rain Light Rain
12:53 PM 39.0 °F 31.0 °F 37.9 °F 96% 30.34 in 8.0 mi ESE 13.8 mph - 0.01 in Rain Light Rain
1:53 PM 39.0 °F 31.4 °F 37.9 °F 96% 30.33 in 5.0 mi ESE 12.7 mph - 0.02 in Rain Light Rain
2:53 PM 39.9 °F 31.8 °F 37.9 °F 93% 30.32 in 7.0 mi East 15.0 mph - 0.00 in Rain Light Rain
3:53 PM 39.9 °F 31.8 °F 37.9 °F 93% 30.31 in 9.0 mi East 15.0 mph - 0.00 in Rain Light Rain
4:53 PM 39.0 °F 31.0 °F 37.9 °F 96% 30.30 in 9.0 mi East 13.8 mph - 0.00 in Rain Light Rain
5:53 PM 39.0 °F 30.3 °F 37.0 °F 93% 30.29 in 7.0 mi ESE 16.1 mph - 0.02 in Rain Light Rain
5:55 PM 39.2 °F 29.8 °F 37.4 °F 93% 30.28 in 8.0 mi East 18.4 mph - 0.00 in Rain Light Rain
6:02 PM 39.2 °F 30.2 °F 37.4 °F 93% 30.28 in 9.0 mi ESE 17.3 mph - 0.00 in Rain Light Rain
6:53 PM 37.9 °F 30.0 °F 37.0 °F 97% 30.29 in 10.0 mi ESE 12.7 mph - 0.00 in Rain Light Rain
7:53 PM 37.9 °F 28.5 °F 36.0 °F 93% 30.27 in 10.0 mi ESE 17.3 mph - 0.01 in Rain Light Rain
8:53 PM 37.9 °F 28.2 °F 36.0 °F 93% 30.26 in 10.0 mi ESE 18.4 mph - 0.00 in Rain Light Rain
9:51 PM 37.4 °F 31.4 °F 35.6 °F 93% 30.25 in 10.0 mi SSE 8.1 mph - 0.00 in   Overcast
9:53 PM 37.0 °F 30.4 °F 34.0 °F 89% 30.26 in 10.0 mi SSE 9.2 mph - 0.00 in   Overcast
10:53 PM 37.0 °F 28.1 °F 35.1 °F 93% 30.25 in 10.0 mi ESE 15.0 mph - N/A   Overcast
11:00 PM 37.4 °F 28.9 °F 35.6 °F 93% 30.25 in 10.0 mi ESE 13.8 mph - 0.00 in Rain Light Rain
11:41 PM 37.4 °F 30.3 °F 35.6 °F 93% 30.25 in 10.0 mi ESE 10.4 mph - 0.00 in   Overcast
11:53 PM 37.0 °F 30.4 °F 35.1 °F 93% 30.25 in 10.0 mi ESE 9.2 mph - 0.00 in Rain Light Rain